Simultaneous Nadir Overpasses (SNOs) Predictions

Prediction of SNOs between AQUA and METOP-B Satellite Orbit:

Table of predicted SNOs for the next 14.0 days since TLE Epoch: 2/2/2018
Index Date (AQUA) Time (AQUA) Lat,Lon (AQUA) SZA (AQUA ) Date (METOP-B) Time (METOP-B) Lat,Lon (METOP-B) SZA (METOP-B ) Distance(km) Time Diff (sec)
1 02/04/2018 10:40:46 -73.83,-165.95 89.90 02/04/2018 10:39:54 -73.82,-165.86 89.90 3.27 52
2 02/04/2018 11:30:14 73.84, 1.66 90.11 02/04/2018 11:30:33 73.85, 1.55 90.12 3.48 19
3 02/07/2018 06:15:03 -73.84, -99.52 90.75 02/07/2018 06:14:16 -73.82, -99.44 90.76 2.84 47
4 02/07/2018 07:04:31 73.85, 68.08 89.26 02/07/2018 07:04:55 73.85, 67.97 89.26 3.48 24
5 02/10/2018 01:49:19 -73.85, -33.10 91.64 02/10/2018 01:48:37 -73.82, -33.04 91.65 3.22 42
6 02/10/2018 02:38:47 73.87, 134.48 88.38 02/10/2018 02:39:15 73.90, 134.49 88.41 3.71 28
7 02/12/2018 21:23:35 -73.81, 33.42 92.61 02/12/2018 21:22:59 -73.82, 33.37 92.58 2.20 36
8 02/12/2018 22:13:04 73.89,-159.13 87.48 02/12/2018 22:13:37 73.90,-159.10 87.48 1.37 33
9 02/15/2018 16:57:52 -73.83, 99.81 93.54 02/15/2018 16:57:21 -73.82, 99.76 93.54 2.00 31
10 02/15/2018 17:47:21 73.92, -92.75 86.55 02/15/2018 17:47:59 73.90, -92.71 86.52 2.67 38




NCC Satellite Simultaneous Nadir Overpasses (SNOs) Prediction Service
